User: anonymous   Login
Location: ??????
(55.0357°N, 38.6195°E)
Time: 19:57:34
(UTC+00:00)
Language:

Cosmos 1420 Rocket - Orbit

View from above orbital plane
View from above orbital plane
View from above satellite
View from above satellite

Ground track
Ground track

The orbit data is extracted from the following two-line orbital elements,

1 13649U 82109B   24171.88457927  .00000336  00000-0  11997-3 0  9990
2 13649  74.0007 332.9566 0019076 249.7542 220.4424 14.37904565179103
Epoch (UTC): 19 June 2024 21:13:47
Eccentricity: 0.0019076
inclination: 74.0007°
perigee height: 752 km
apogee height: 779 km
right ascension of ascending node: 332.9566°
argument of perigee: 249.7542°
revolutions per day: 14.37904565
mean anomaly at epoch: 220.4424°
orbit number at epoch: 17910

The dashed part of the orbit path shows where the satellite is in the earth's shadow,  

DLR